Regional Weather Roundup
Issued by NWS Cleveland, OH

Home | Current Version | Previous Version | Graphics & Text | Print | Product List | Glossary Off
Versions: 1 2 3 4 5 6 7 8 9 10 11 12 13 14 15 16 17 18 19 20 21 22 23 24 25 26 27 28 29 30 31 32 33 34 35 36 37 38 39 40 41 42 43 44 45 46 47 48 49 50

000
ASUS41 KCLE 010612
RWRCLE
OHIO REGIONAL WEATHER ROUNDUP
NATIONAL WEATHER SERVICE WILMINGTON, OH
200 AM EDT SUN MAY 01 2016

NOTE: "FAIR" INDICATES FEW OR NO CLOUDS BELOW 12,000 FEET WITH NO
SIGNIFICANT WEATHER AND/OR OBSTRUCTIONS TO VISIBILITY.

OHZ001>008-015>018-024>027-034-035-043-044-010700-
   NORTHWEST OHIO

CITY           SKY/WX    TMP DP  RH WIND       PRES   REMARKS
DEFIANCE       LGT RAIN  51  48  89 NE6       29.90S FOG
FINDLAY        CLOUDY    54  50  86 NE6       29.86F FOG
TOLEDO EXPRESS CLOUDY    49  48  97 E9        29.89F
TOLEDO EXEC    CLOUDY    50  48  93 E8        29.90F
LIMA           CLOUDY    57  56  96 S8        29.87F
$$

OHZ009>014-019>023-028>033-038-089-010700-
   NORTHEAST OHIO

CITY           SKY/WX    TMP DP  RH WIND       PRES   REMARKS
CLE-HOPKINS    LGT RAIN  57  54  89 S8        29.91S
CLE-LAKEFRONT  LGT RAIN  56  53  90 SE13      29.88F FOG
CUY CO. ARPT   NOT AVBL
LORAIN-ELYRIA  LGT RAIN  55  52  89 SW3       29.90S
ASHTABULA      CLOUDY    51  50  96 SE9       29.93F
AKRON-CANTON   CLOUDY    56  54  93 S10       29.91F FOG
WOOSTER        CLOUDY    55  54  96 S6        29.90F FOG
MANSFIELD      CLOUDY    55  55 100 S10       29.90S
YOUNGSTOWN     LGT RAIN  52  50  93 SE12      29.93F
$$

OHZ042-051>053-060>062-070>072-077>081-010700-
  SOUTHWEST OHIO

CITY           SKY/WX    TMP DP  RH WIND       PRES   REMARKS
CINC-COVINGTON LGT RAIN  62  60  93 S9        29.91R
CINC-LUNKEN    LGT RAIN  60  60 100 S6        29.91S
HAMILTON       LGT RAIN  62  60  93 CALM      29.91R
DAYTON         CLOUDY    59  58  96 S10       29.90S FOG
WRIGHT-PAT AFB CLOUDY    60  60 100 SW6       29.90R
DAYTON GENERAL CLOUDY    59  57  93 S6        29.89S FOG
WILMINGTON     LGT RAIN  59  58  96 S10       29.89F
$$

OHZ036-037-039>041-045>050-054>059-063>069-073>076-082>088-010700-
  CENTRAL AND SOUTHEAST OHIO

CITY           SKY/WX    TMP DP  RH WIND       PRES   REMARKS
COLUMBUS       CLOUDY    56  56 100 S5        29.90S FOG
OSU AIRPORT    CLOUDY    59  58  96 S8        29.90R FOG
BOLTON FIELD   CLOUDY    57  57 100 S7        29.90F
RICKENBACK AFB CLOUDY    57  57  98 S9        29.90F FOG
NEWARK         CLOUDY    61  57  87 S7        29.91R
MARION         LGT RAIN  57  56  96 SW8       29.91R FOG
LANCASTER      CLOUDY    60  57  89 S7        29.91S
ZANESVILLE     CLOUDY    62  58  86 S9        29.92F
NEW PHILLY     CLOUDY    57  55  93 SE3       29.92F
$$




USA.gov is the U.S. government's official web portal to all federal, state and local government web resources and services.